This is the latest recevied weather packets stored in our database for station/object N1ICS-1. If no packets are shown the sender has not sent any weather packets the latest 10 day(s).
| Time | Temp. | Humidity | Pressure | Rain* | Wind** | Luminosity | Snow |
|---|---|---|---|---|---|---|---|
| 1788537301 | 28.89° C | 83% | 1018.5 hPa | 0 mm | - | 351 W/m² | - |
| 1788536701 | 30° C | 80% | 1018.5 hPa | 0 mm | - | 654 W/m² | - |
| 1788536402 | 29.44° C | 81% | 1018.3 hPa | 0 mm | - | 708 W/m² | - |
| 1788536102 | 29.44° C | 81% | 1018.4 hPa | 0 mm | - | 731 W/m² | - |
| 1788535502 | 28.89° C | 83% | 1018.2 hPa | 0 mm | - | 738 W/m² | - |
| 1788535221 | 28.89° C | 85% | 1018.2 hPa | 0 mm | - | 748 W/m² | - |
| 1788534902 | 28.33° C | 85% | 1018.2 hPa | 0 mm | - | 743 W/m² | - |
| 1788534602 | 27.78° C | 86% | 1017.9 hPa | 0 mm | - | 708 W/m² | - |
| 1788534003 | 27.22° C | 89% | 1018.1 hPa | 0 mm | - | 675 W/m² | - |
| 1788533702 | 27.22° C | 89% | 1018 hPa | 0 mm | - | 607 W/m² | - |
| 1788533402 | 27.22° C | 90% | 1018.1 hPa | 0 mm | - | 633 W/m² | - |
| 1788532802 | 26.67° C | 91% | 1018.1 hPa | 0 mm | - | 584 W/m² | - |
| 1788532502 | 26.11° C | 91% | 1018.2 hPa | 0 mm | - | 510 W/m² | - |
| 1788532202 | 26.11° C | 93% | 1018.1 hPa | 0 mm | - | 528 W/m² | - |
| 1788531902 | 25.56° C | 94% | 1018.1 hPa | 0 mm | - | 315 W/m² | - |
| 1788531601 | 25.56° C | 92% | 1018.1 hPa | 0 mm | - | 470 W/m² | - |
| 1788531002 | 25.56° C | 93% | 1017.8 hPa | 0 mm | - | 390 W/m² | - |
| 1788530102 | 25° C | 94% | 1017.7 hPa | 0 mm | - | 382 W/m² | - |
| 1788529202 | 24.44° C | 95% | 1017.8 hPa | 0 mm | - | 431 W/m² | - |
| 1788528902 | 24.44° C | 95% | 1017.6 hPa | 0 mm | - | 342 W/m² | - |
| 1788528002 | 23.33° C | 98% | 1017.9 hPa | 0 mm | - | 169 W/m² | - |
| 1788527402 | 24.44° C | 97% | 1018 hPa | 0 mm | - | 202 W/m² | - |
| 1788526802 | 23.33° C | 99% | 1017.6 hPa | 0 mm | - | 154 W/m² | - |
| 1788526502 | 23.33° C | 99% | 1017.5 hPa | 0 mm | - | 117 W/m² | - |
| 1788526202 | 22.78° C | 99% | 1017.5 hPa | 0 mm | - | 146 W/m² | - |
* Rain latest hour (hover to see other rain measurements)
** Current wind speed in m/s (hover to see current wind gust speed)